User: anonymous   Login
Location: Unspecified
(0.0000°N, 0.0000°E)
Time: 02:52:57
(UTC+02:00)
Language:

Cosmos 1898 Rocket - Orbit

View from above orbital plane
View from above orbital plane
View from above satellite
View from above satellite

Ground track
Ground track

The orbit data is extracted from the following two-line orbital elements,

1 18586U 87098B   16177.53513633  .00000053  00000-0  26899-4 0  9997
2 18586  74.0064 232.0427 0020899   9.6165  93.1701 14.36728740496143
Epoch (UTC): 25 June 2016 12:50:35
Eccentricity: 0.0020899
inclination: 74.0064°
perigee height: 754 km
apogee height: 784 km
right ascension of ascending node: 232.0427°
argument of perigee: 9.6165°
revolutions per day: 14.36728740
mean anomaly at epoch: 93.1701°
orbit number at epoch: 49614

The dashed part of the orbit path shows where the satellite is in the earth's shadow,  

DLR